CAPE
27 30 98 188 114 21 38 71 521 424 294 281 367 499 283 160 255 140 51 10 9 0
0 0 0 0 0 47 38 45 75 134 377 372 337 350 266 294 172 161 116 55 277 256
0 0 0 0 0 0 0 0 2 32 55 90 188 535 535 435 374 295 192 123 89 57
0 0 0 0 0 0 0 0 0 0 4 34 84 170 323 454 452 361 370 319 256 156
0 0 0 0 0 0 0 0 0 0 0 0 0 2 51 177 246 366 390 389 274 211
0 0 0 0 0 0 0 0 0 0 0 0 0 0 0 0 0 43 189 211 230 216
0 0 0 0 0 0 0 0 0 0 0 0 0 0 0 0 0 0 0 0 9 98
0 0 0 0 0 0 0 0 0 0 0 0 0 0 0 0 0 0 0 0 0 0
0 0 0 0 0 0 0 0 0 0 0 0 0 0 0 0 0 0 0 0 0 0
0 0 0 0 0 0 0 0 0 0 0 0 0 0 0 0 0 0 0 0 0 0
0 0 0 0 0 0 0 0 0 0 0 0 0 0 0 0 0 0 0 0 0 0
0 0 0 0 0 0 0 0 0 0 0 0 0 0 0 0 0 1 0 1 0 0
0 0 0 0 0 0 0 0 0 0 0 0 1 0 0 0 0 1 2 2 2 1
0 0 0 0 0 0 0 1 2 1 1 1 1 0 0 0 1 1 1 2 1 1
CIN
-225 -219 -182 -172 -208 -235 -165 -115 -6 -40 -38 -17 -13 -12 -34 -45 -33 -89 -128 -192 -205 -17
0 0 0 0 0 -174 -139 -125 -66 -33 -13 -5 -11 -17 -18 -18 -45 -43 -62 -94 -34 -53
0 0 0 0 0 0 0 -44 -166 -143 -98 -56 -26 -7 -5 -7 -7 -12 -31 -47 -45 -48
0 0 0 0 0 0 0 0 0 0 -105 -112 -75 -35 -16 -9 -9 -9 -8 -4 -8 -8
0 0 0 0 0 0 0 0 0 0 0 0 0 -4 -39 -5 -6 -3 -6 -11 -11 -6
0 0 0 0 0 0 0 0 0 0 0 0 0 0 0 0 0 -5 -2 -4 -3 -6
0 0 0 0 0 0 0 0 0 0 0 0 0 0 0 0 0 0 0 0 -3 -8
0 0 0 0 0 0 0 0 0 0 0 0 0 0 0 0 0 0 0 0 0 0
0 0 0 0 0 0 0 0 0 0 0 0 0 0 0 0 0 0 0 0 0 0
0 0 0 0 0 0 0 0 0 0 0 0 0 0 0 0 0 0 0 0 0 0
0 0 0 0 0 0 0 0 0 0 0 0 0 0 0 0 0 0 0 0 0 0
0 0 0 0 0 0 0 0 0 0 0 0 0 0 0 0 0 0 0 0 0 0
0 0 0 0 0 0 -1 0 0 0 0 0 0 0 0 0 0 0 0 0 0 0
0 0 0 0 0 0 0 0 0 0 0 0 0 0 0 0 0 0 0 0 0 0
Wind_Speed
23 22 22 24 25 25 24 23 20 18 19 20 20 22 24 27 28 28 29 30 30 31
23 24 24 26 26 27 27 26 26 26 25 25 24 26 28 29 30 31 31 31 31 31
25 25 26 27 28 29 30 31 32 31 31 32 32 31 32 34 33 33 34 34 34 34
27 28 29 29 30 30 31 32 33 34 35 36 36 36 36 36 36 38 38 35 36 37
29 29 30 31 33 34 35 35 36 37 37 37 37 38 38 38 38 39 41 41 42 41
32 33 34 35 35 35 36 37 38 39 41 42 42 42 42 42 43 42 41 41 42 43
35 36 37 37 37 37 36 37 37 38 40 40 40 41 42 43 44 45 44 42 42 40
37 37 37 37 37 36 37 38 39 40 39 40 40 41 42 41 42 45 47 46 45 44
38 38 38 38 38 38 38 37 38 40 42 43 43 43 42 44 45 46 46 47 47 47
39 39 39 39 40 41 42 43 44 44 45 45 44 45 48 49 49 49 48 49 48 49
39 40 42 43 44 44 44 45 46 46 46 47 46 49 52 53 54 51 47 45 44 44
42 45 45 46 46 47 48 48 47 46 46 46 48 49 46 43 39 37 38 39 39 38
43 45 47 48 49 45 43 44 44 47 42 41 39 36 36 37 35 38 39 39 38 38
44 46 45 43 42 47 45 36 35 35 36 35 35 35 34 33 35 36 38 37 37 35
Wind_Direction
319 319 317 314 312 312 314 324 311 299 300 300 299 298 297 297 298 298 298 298 299 300
323 321 319 316 314 311 310 310 316 315 308 303 298 295 296 295 294 295 296 296 296 296
321 320 318 316 312 310 307 305 303 304 304 303 303 299 295 294 293 292 292 293 293 293
319 317 315 314 312 310 308 306 304 301 300 299 298 297 296 294 293 292 294 293 293 293
318 316 313 311 309 308 306 305 303 302 300 299 298 298 297 295 293 292 292 292 291 291
317 315 312 311 310 308 306 304 303 301 299 298 298 297 296 296 295 295 293 292 291 291
318 316 314 312 311 309 308 306 305 304 302 301 301 300 299 298 297 296 296 297 297 296
318 318 317 315 313 311 309 307 305 304 303 303 302 301 300 300 300 299 297 297 297 296
319 318 317 315 313 312 310 309 308 306 304 303 302 301 302 302 300 299 298 297 296 296
319 319 318 316 315 313 311 309 307 305 305 303 303 301 300 300 299 298 298 297 297 296
318 317 316 314 312 312 312 310 308 307 306 304 303 302 300 298 298 298 298 298 298 297
315 314 313 313 312 311 309 309 309 309 308 306 304 304 304 304 303 302 302 302 301 301
315 315 314 312 310 314 314 313 312 311 311 311 310 309 307 305 303 302 303 304 303 301
317 315 315 317 317 312 314 320 320 319 318 316 314 312 310 307 305 303 304 305 305 306